Location: La Guay
(47.3248°N, 1.8355°W)
Time: 22:28:21
(UTC+00:00)

Daily predictions for brighter satellites

Satellite Brightness Start Highest point End
(mag) Time Altitude Azimuth Time Altitude Azimuth Time Altitude Azimuth
ATLAS CENTAUR R/B 2.6 16:45:56 10° NW 16:49:41 55° NE 16:56:46 10° ESE
SL-16 R/B 2.6 16:44:29 10° NNW 16:50:10 74° WSW 16:55:48 10° SSE
Cosmos 1602 4.4 16:49:44 10° N 16:53:05 31° ENE 16:56:26 10° SE
SL-8 R/B 3.8 16:48:52 10° WNW 16:53:39 83° SSW 16:58:27 10° ESE
USA 305 2.7 16:50:40 10° NW 16:54:27 58° NNE 16:58:14 10° ESE
Cosmos 1607 4.1 16:49:12 10° SW 16:55:33 85° NW 17:02:03 10° NE
Cosmos 1606 4.2 16:52:57 10° SW 16:56:18 35° WNW 16:59:42 10° N
CZ-4B R/B 4.4 16:55:07 10° ESE 16:59:16 26° ENE 17:03:19 10° N
Cosmos 1943 3.4 16:55:36 10° NNW 17:01:03 47° NE 17:06:30 10° SE
ATLAS 2AS CENTAUR R/B 3.5 16:56:10 10° NW 17:02:18 31° NNE 17:08:09 10° E
Helios 1A 4.4 16:59:48 10° NE 17:02:45 19° E 17:05:41 10° SE
Cosmos 1500 2.9 17:01:20 10° N 17:04:53 73° E 17:08:24 10° SSE
SMAP 3.2 17:01:13 10° SSE 17:05:44 53° ENE 17:10:17 10° N
Cosmos 1953 Rocket 4.4 17:01:44 10° NNW 17:06:07 57° W 17:10:25 10° S
Helios 1B rocket 2.4 17:02:16 10° SSE 17:06:12 82° WSW 17:10:10 10° NNW
CZ-4B R/B 3.9 17:05:45 10° SE 17:09:08 42° ENE 17:12:36 10° N
Cosmos 2297 Rocket 3.9 17:07:08 10° WSW 17:11:52 27° NW 17:16:37 10° N
Cosmos 407 Rocket 3.9 17:07:46 10° N 17:12:34 37° ENE 17:17:18 10° SE
SOZ 4.0 17:11:36 10° WSW 17:13:44 68° NNW 17:16:19 13° ENE
SL-16 R/B 4.3 17:08:42 10° N 17:13:53 28° WNW 17:19:03 10° WSW
Cosmos 405 Rocket 3.5 17:11:23 10° SSW 17:15:06 52° WNW 17:18:53 10° N
ISS -2.5 17:15:00 10° WNW 17:18:11 42° SW 17:21:23 10° SE
Cosmos 2219 3.9 17:12:44 10° SW 17:18:13 55° WNW 17:23:47 10° NNE
Cosmos 2251 Rocket 3.8 17:15:15 10° NNW 17:20:25 46° ENE 17:25:34 10° SE
Radarsat 4.5 17:22:22 10° SSE 17:27:33 77° ENE 17:32:45 10° NNW
Lacrosse 5 3.0 17:24:40 10° S 17:28:51 27° SE 17:31:43 16° E
Cosmos 2151 4.2 17:24:58 10° NNW 17:29:04 46° W 17:33:08 10° SSW
Cosmos-2242 3.1 17:26:28 10° S 17:30:41 54° E 17:34:56 10° NNE
COSMO-SKYMED 1 3.6 17:29:30 14° NE 17:32:17 25° E 17:35:53 10° SSE
Lacrosse 4 Rocket 1.3 17:28:28 10° NNW 17:32:49 74° ENE 17:37:03 10° SE
Cosmos 1833 Rocket 4.5 17:30:49 10° N 17:33:08 12° NNE 17:33:48 12° NE
Cosmos 2082 4.1 17:27:42 10° SW 17:33:16 65° WNW 17:38:54 10° NNE
Cosmos 2058 Rocket 4.0 17:29:26 10° SSW 17:33:44 50° WNW 17:38:03 10° N
APEX 2.7 17:35:58 10° S 17:38:52 47° ESE 17:39:58 29° ENE
Meteor 2-2 Rocket 4.5 17:34:51 10° SSE 17:40:23 51° E 17:46:03 10° NNE
Cosmos 2344 3.6 17:33:47 10° SSW 17:41:13 55° ESE 17:47:04 16° NE
Cosmos 2221 3.8 17:38:24 10° SE 17:41:02 19° E 17:41:02 19° E
Cosmos 1023 Rocket 4.4 17:36:21 10° NNW 17:41:32 87° ENE 17:46:38 10° SSE
Meteor 1-25 Rocket 4.2 17:36:43 10° N 17:42:22 64° ENE 17:47:53 10° SSE
USA 234 3.5 17:37:35 17° ENE 17:42:41 54° SE 17:49:02 10° SSW
Cosmos 1812 2.5 17:40:08 10° S 17:43:47 72° E 17:47:28 10° NNE
Cosmos 1190 Rocket 4.4 17:39:40 10° N 17:44:42 41° ENE 17:49:41 10° SE
Cosmos 1818 3.8 17:39:56 10° SSW 17:45:10 52° ESE 17:48:46 20° NE
Cosmos 2026 Rocket 4.3 17:41:40 10° SSE 17:47:33 46° E 17:53:34 10° NNE
USA 276 1.4 17:45:08 10° WSW 17:47:34 76° NNW 17:48:03 51° NE
CZ-2C R/B 4.4 17:46:40 10° SSW 17:49:54 34° W 17:53:14 10° NNW
AQUARIUS 4.3 17:45:39 10° S 17:50:06 75° WSW 17:54:35 10° NNW
USA 307 3.8 17:54:26 10° WNW 17:58:05 41° SW 18:01:39 10° SSE
Cosmos 2263 Rocket 3.0 17:54:04 10° SW 17:59:24 48° NW 18:04:50 10° NNE
Cosmos 1844 Rocket 3.0 17:54:15 10° S 17:59:27 42° ESE 18:02:03 26° NE
Cosmos 1766 Rocket 4.0 17:59:52 10° N 18:03:56 37° ENE 18:07:56 10° SE
Cosmos 1092 Rocket 3.9 17:58:58 10° S 18:05:00 63° E 18:11:04 10° NNE
Nadezhda 4 Rocket 4.1 17:58:57 10° SSW 18:05:05 74° W 18:11:13 10° N
YAOGAN 1 3.9 18:07:02 23° NNE 18:07:02 23° NNE 18:09:08 10° N
Cosmos 1933 3.3 18:02:25 10° S 18:06:19 55° E 18:07:55 32° NNE
Cosmos 1420 Rocket 4.4 18:01:50 10° S 18:06:43 41° ESE 18:08:27 31° ENE
Cosmos 2227 4.2 18:02:13 10° SSW 18:07:59 88° WNW 18:12:31 17° NNE
Cosmos 2227 Rocket 4.3 18:04:25 10° W 18:08:27 20° NW 18:12:30 10° N
Cosmos 1140 Rocket 4.1 18:04:02 10° NNW 18:09:07 59° WSW 18:14:09 10° S
ADEOS 3.6 18:05:25 10° SSE 18:10:30 56° ENE 18:15:37 10° N
Meteor 1-5 Rocket 4.3 18:07:27 10° N 18:13:05 58° ENE 18:18:50 10° SSE
Cosmos 1624 Rocket 4.3 18:09:37 10° S 18:14:31 43° ESE 18:15:39 37° ENE
BREEZE-M DEB (TANK) 2.2 18:13:37 10° W 18:15:04 42° WNW 18:15:04 42° WNW
CZ-4B R/B 4.3 18:20:41 26° NNE 18:20:41 26° NNE 18:22:42 10° N
CBERS 1 LM4 rocket 4.4 18:15:32 10° SSE 18:20:20 81° WSW 18:25:06 10° NNW
SKYMED 2 3.4 18:18:07 26° NNE 18:20:35 77° ESE 18:24:54 10° S
Cosmos 1603 4.1 18:15:41 10° NNW 18:21:20 66° WSW 18:26:54 10° SSE
Cosmos 192 4.2 18:22:02 10° SSW 18:26:54 74° ESE 18:28:35 41° NE
SL-08 R/B 3.2 18:25:44 44° NE 18:26:59 63° ESE 18:31:35 10° S
USA 305 4.4 18:25:45 10° WNW 18:29:08 30° SW 18:31:45 14° S
RESURS DK-1 3.2 18:29:12 10° NNW 18:31:56 37° N 18:31:56 37° N
Meteor 2-17 Rocket 4.4 18:27:27 10° S 18:33:36 84° W 18:39:46 10° N
Cosmos 1782 3.3 18:32:37 10° SSW 18:36:28 57° WNW 18:38:16 29° N
CZ-4B R/B 4.5 18:32:49 10° S 18:37:41 46° W 18:42:28 10° NNW
Helios 1A 4.0 18:35:01 15° N 18:38:14 45° WNW 18:42:10 10° SW
Cosmos 676 Rocket 3.9 18:33:24 10° NNW 18:38:42 68° ENE 18:40:04 48° SE
JB-3 4.5 18:46:17 67° WSW 18:46:17 67° WSW 18:49:44 10° SSW
EO 1 Delta rocket 4.3 18:42:28 10° SSE 18:49:14 90° E 18:54:36 10° N
ATLAS 2AS CENTAUR R/B 2.5 18:47:10 10° NW 18:54:08 88° NE 18:56:38 42° SE
ATLAS CENTAUR R/B 4.5 18:49:49 10° WNW 18:54:34 37° SW 19:03:02 10° SSE
CZ-4B DEB 4.1 18:53:03 33° SSE 18:55:41 80° ENE 19:01:16 10° NNW
Cosmos 1241 Rocket 4.3 18:53:21 10° SSW 18:59:44 78° ESE 19:00:35 67° ENE
Cosmos 2056 Rocket 3.7 19:02:59 10° SSW 19:08:21 70° WNW 19:09:06 61° NNW
COSMO-SKYMED 1 4.0 19:06:43 25° NNW 19:08:31 35° WNW 19:12:29 10° SW
Cosmos 1954 Rocket 4.5 19:04:10 10° NNW 19:09:20 58° WSW 19:11:51 29° S
Cosmos 1844 3.9 19:05:35 10° SW 19:11:20 68° WNW 19:12:19 57° N
Lacrosse 5 2.1 19:06:25 10° WSW 19:10:56 65° WNW 19:10:56 65° WNW
COSMOS 2455 3.4 19:06:02 10° SSW 19:10:14 44° S 19:10:14 44° S
Timation 2 Rocket 4.1 19:08:25 10° SW 19:14:20 65° WNW 19:15:41 51° N
Cosmos 2221 3.8 19:14:31 10° SW 19:17:46 37° WSW 19:17:46 37° WSW
Cosmos 1833 Rocket 4.2 19:13:06 10° NNW 19:15:30 25° N 19:15:30 25° N
Cosmos 1553 Rocket 4.5 19:18:33 10° NNW 19:24:45 58° W 19:30:48 10° S
USA 234 3.4 19:24:56 57° N 19:25:46 62° NNW 19:32:12 10° WSW
Cosmos 1844 Rocket 3.9 19:38:18 10° WSW 19:43:24 36° NW 19:43:44 35° NW
Cosmos 2344 4.3 19:48:58 10° WSW 19:55:51 41° NNW 19:57:06 38° N
